QPF
0.00 0.00 0.00 0.00 0.00 0.00 0.00 0.00 0.00 0.00 0.00 0.01 0.01 0.02 0.02 0.03 0.06 0.08 0.07 0.06 0.04 0.03 0.02 0.02 0.01 0.01 0.01 0.00 0.00 0.00 0.00 0.00 0.00 0.00 0.00 0.00 0.00 0.00 0.00 0.00 0.00 0.00 0.00 0.00
0.00 0.00 0.00 0.00 0.01 0.01 0.00 0.00 0.01 0.00 0.00 0.01 0.02 0.03 0.04 0.05 0.06 0.07 0.07 0.06 0.05 0.04 0.01 0.01 0.00 0.00 0.00 0.00 0.00 0.00 0.00 0.00 0.00 0.00 0.00 0.00 0.00 0.00 0.00 0.00 0.00 0.00 0.00 0.00
0.00 0.00 0.00 0.00 0.00 0.01 0.01 0.01 0.01 0.01 0.01 0.01 0.02 0.03 0.05 0.06 0.07 0.08 0.06 0.05 0.04 0.02 0.01 0.00 0.00 0.00 0.00 0.00 0.00 0.00 0.00 0.00 0.00 0.00 0.00 0.00 0.00 0.00 0.00 0.00 0.00 0.00 0.00 0.00
0.00 0.00 0.00 0.00 0.01 0.01 0.01 0.01 0.01 0.01 0.02 0.02 0.02 0.01 0.02 0.04 0.06 0.07 0.07 0.04 0.02 0.01 0.00 0.00 0.00 0.00 0.00 0.00 0.00 0.00 0.00 0.00 0.00 0.00 0.00 0.00 0.00 0.00 0.00 0.00 0.00 0.00 0.00 0.00
0.00 0.00 0.01 0.01 0.01 0.01 0.01 0.01 0.01 0.01 0.02 0.01 0.01 0.00 0.00 0.01 0.02 0.03 0.03 0.02 0.01 0.00 0.00 0.00 0.00 0.00 0.00 0.00 0.00 0.00 0.00 0.00 0.00 0.00 0.00 0.00 0.00 0.00 0.00 0.00 0.00 0.00 0.00 0.00
0.00 0.01 0.01 0.01 0.00 0.00 0.01 0.01 0.01 0.02 0.02 0.01 0.00 0.00 0.00 0.00 0.00 0.01 0.01 0.00 0.00 0.00 0.00 0.00 0.00 0.00 0.00 0.00 0.00 0.00 0.00 0.00 0.00 0.00 0.00 0.00 0.00 0.00 0.00 0.00 0.00 0.00 0.00 0.00
0.00 0.01 0.01 0.01 0.00 0.00 0.01 0.01 0.01 0.01 0.01 0.00 0.00 0.00 0.00 0.00 0.00 0.00 0.00 0.00 0.00 0.00 0.00 0.00 0.00 0.00 0.00 0.00 0.00 0.00 0.00 0.00 0.00 0.00 0.00 0.00 0.00 0.00 0.00 0.00 0.00 0.00 0.00 0.00
0.00 0.01 0.01 0.01 0.00 0.00 0.00 0.01 0.00 0.00 0.00 0.00 0.00 0.00 0.00 0.00 0.00 0.00 0.00 0.00 0.00 0.00 0.00 0.00 0.00 0.00 0.00 0.00 0.00 0.00 0.00 0.00 0.00 0.00 0.00 0.00 0.00 0.00 0.00 0.00 0.00 0.00 0.00 0.00
0.00 0.00 0.01 0.01 0.01 0.00 0.00 0.00 0.00 0.00 0.00 0.00 0.00 0.00 0.00 0.00 0.00 0.00 0.00 0.00 0.00 0.00 0.00 0.00 0.00 0.00 0.00 0.00 0.00 0.00 0.00 0.00 0.00 0.00 0.00 0.00 0.00 0.00 0.00 0.00 0.00 0.00 0.00 0.00
0.00 0.00 0.01 0.01 0.01 0.00 0.00 0.00 0.00 0.00 0.00 0.00 0.00 0.00 0.00 0.00 0.00 0.00 0.00 0.00 0.00 0.00 0.00 0.00 0.00 0.00 0.00 0.00 0.00 0.00 0.00 0.00 0.00 0.00 0.00 0.00 0.00 0.00 0.00 0.00 0.00 0.00 0.00 0.00
0.00 0.00 0.01 0.01 0.00 0.00 0.00 0.00 0.00 0.00 0.00 0.00 0.00 0.00 0.00 0.00 0.00 0.00 0.00 0.00 0.00 0.00 0.00 0.00 0.00 0.00 0.00 0.00 0.00 0.00 0.00 0.00 0.00 0.00 0.00 0.00 0.00 0.00 0.00 0.00 0.00 0.00 0.00 0.00
0.00 0.00 0.00 0.00 0.00 0.00 0.00 0.00 0.00 0.00 0.00 0.00 0.00 0.00 0.00 0.00 0.00 0.00 0.00 0.00 0.00 0.00 0.00 0.00 0.00 0.00 0.00 0.00 0.00 0.00 0.00 0.00 0.00 0.00 0.00 0.00 0.00 0.00 0.00 0.00 0.00 0.00 0.00 0.00
0.00 0.00 0.00 0.00 0.00 0.00 0.00 0.00 0.00 0.00 0.00 0.00 0.00 0.00 0.00 0.00 0.00 0.00 0.00 0.00 0.00 0.00 0.00 0.00 0.00 0.00 0.00 0.00 0.00 0.00 0.00 0.00 0.00 0.00 0.00 0.00 0.00 0.00 0.00 0.00 0.00 0.00 0.00 0.00
0.00 0.00 0.00 0.00 0.00 0.00 0.00 0.00 0.00 0.00 0.00 0.00 0.00 0.00 0.00 0.00 0.00 0.00 0.00 0.00 0.00 0.00 0.00 0.00 0.00 0.00 0.00 0.00 0.00 0.00 0.00 0.00 0.00 0.00 0.00 0.00 0.00 0.00 0.00 0.00 0.00 0.00 0.00 0.00
0.00 0.00 0.00 0.00 0.00 0.00 0.00 0.00 0.00 0.00 0.00 0.00 0.00 0.00 0.00 0.00 0.00 0.00 0.00 0.00 0.00 0.00 0.00 0.00 0.00 0.00 0.00 0.00 0.00 0.00 0.00 0.00 0.00 0.00 0.00 0.00 0.00 0.00 0.00 0.00 0.00 0.00 0.00 0.00
0.00 0.00 0.00 0.00 0.00 0.00 0.00 0.00 0.00 0.00 0.00 0.00 0.00 0.00 0.00 0.00 0.00 0.00 0.00 0.00 0.00 0.00 0.00 0.00 0.00 0.00 0.00 0.00 0.00 0.00 0.00 0.00 0.00 0.00 0.00 0.00 0.00 0.00 0.00 0.00 0.00 0.00 0.00 0.00
0.00 0.00 0.00 0.00 0.00 0.00 0.00 0.00 0.00 0.00 0.00 0.00 0.00 0.00 0.00 0.00 0.00 0.00 0.00 0.00 0.00 0.00 0.00 0.00 0.00 0.00 0.00 0.00 0.00 0.00 0.00 0.00 0.00 0.00 0.00 0.00 0.00 0.00 0.00 0.00 0.00 0.00 0.00 0.00
0.00 0.00 0.00 0.00 0.00 0.00 0.00 0.00 0.00 0.00 0.00 0.00 0.00 0.00 0.00 0.00 0.00 0.00 0.00 0.00 0.00 0.00 0.00 0.00 0.00 0.00 0.00 0.00 0.00 0.00 0.00 0.00 0.00 0.00 0.00 0.00 0.00 0.00 0.00 0.00 0.00 0.00 0.00 0.00
0.01 0.01 0.01 0.00 0.00 0.00 0.00 0.00 0.00 0.00 0.00 0.00 0.00 0.00 0.00 0.00 0.00 0.00 0.00 0.00 0.00 0.00 0.00 0.00 0.00 0.00 0.00 0.00 0.00 0.00 0.00 0.00 0.00 0.00 0.00 0.00 0.00 0.00 0.00 0.00 0.00 0.00 0.00 0.00
0.01 0.01 0.01 0.00 0.00 0.00 0.00 0.00 0.00 0.00 0.00 0.00 0.00 0.00 0.00 0.00 0.00 0.00 0.00 0.00 0.00 0.00 0.00 0.00 0.00 0.00 0.00 0.00 0.00 0.00 0.00 0.00 0.00 0.00 0.00 0.00 0.00 0.00 0.00 0.00 0.00 0.00 0.00 0.00
0.00 0.00 0.00 0.00 0.00 0.00 0.00 0.00 0.00 0.00 0.00 0.00 0.00 0.00 0.00 0.00 0.00 0.00 0.00 0.00 0.00 0.00 0.00 0.00 0.00 0.00 0.00 0.00 0.00 0.00 0.00 0.00 0.00 0.00 0.00 0.00 0.00 0.00 0.00 0.00 0.00 0.00 0.00 0.00
0.00 0.00 0.00 0.00 0.00 0.00 0.00 0.00 0.00 0.00 0.00 0.00 0.00 0.00 0.00 0.00 0.00 0.00 0.00 0.00 0.00 0.00 0.00 0.00 0.00 0.00 0.00 0.00 0.00 0.00 0.00 0.00 0.00 0.00 0.00 0.00 0.00 0.00 0.00 0.00 0.00 0.00 0.00 0.00
0.00 0.00 0.00 0.00 0.00 0.00 0.00 0.00 0.00 0.00 0.00 0.00 0.00 0.00 0.00 0.00 0.00 0.00 0.00 0.00 0.00 0.00 0.00 0.00 0.00 0.00 0.00 0.00 0.00 0.00 0.00 0.00 0.00 0.00 0.00 0.00 0.00 0.00 0.00 0.00 0.00 0.00 0.00 0.00
0.00 0.00 0.00 0.00 0.00 0.00 0.00 0.00 0.00 0.00 0.00 0.00 0.00 0.00 0.00 0.00 0.00 0.00 0.00 0.00 0.00 0.00 0.00 0.00 0.00 0.00 0.00 0.00 0.00 0.00 0.00 0.00 0.00 0.00 0.00 0.00 0.00 0.00 0.00 0.00 0.00 0.00 0.00 0.00
0.00 0.00 0.00 0.00 0.00 0.00 0.00 0.00 0.00 0.00 0.00 0.00 0.00 0.00 0.00 0.00 0.00 0.00 0.00 0.00 0.00 0.00 0.00 0.00 0.00 0.00 0.00 0.00 0.00 0.00 0.00 0.00 0.00 0.00 0.00 0.00 0.00 0.00 0.00 0.00 0.00 0.00 0.00 0.00
0.00 0.00 0.00 0.00 0.00 0.00 0.00 0.00 0.00 0.00 0.00 0.00 0.00 0.00 0.00 0.00 0.00 0.00 0.00 0.00 0.00 0.00 0.00 0.00 0.00 0.00 0.00 0.00 0.00 0.00 0.00 0.00 0.00 0.00 0.00 0.00 0.00 0.00 0.00 0.00 0.00 0.00 0.00 0.00
MSLP
1012.74 1013.45 1013.96 1014.29 1014.49 1014.64 1014.82 1015.07 1015.43 1015.86 1016.31 1016.72 1017.02 1017.17 1017.16 1017.01 1016.76 1016.48 1016.24 1016.06 1015.97 1015.97 1016.01 1016.06 1016.08 1016.05 1015.97 1015.85 1015.73 1015.66 1015.66 1015.76 1015.94 1016.17 1016.39 1016.56 1016.63 1016.55 1016.34 1016.02 1015.63 1015.24 1014.91 1014.67
1012.96 1013.55 1013.95 1014.21 1014.40 1014.60 1014.88 1015.27 1015.78 1016.34 1016.88 1017.32 1017.59 1017.64 1017.50 1017.18 1016.78 1016.37 1016.03 1015.80 1015.71 1015.72 1015.80 1015.88 1015.94 1015.93 1015.86 1015.75 1015.66 1015.62 1015.68 1015.85 1016.10 1016.40 1016.69 1016.90 1016.97 1016.88 1016.63 1016.25 1015.81 1015.38 1015.01 1014.75
1012.94 1013.39 1013.69 1013.90 1014.11 1014.40 1014.83 1015.41 1016.10 1016.81 1017.46 1017.92 1018.15 1018.09 1017.78 1017.28 1016.69 1016.12 1015.66 1015.37 1015.24 1015.27 1015.39 1015.53 1015.64 1015.68 1015.65 1015.59 1015.53 1015.54 1015.65 1015.88 1016.19 1016.55 1016.88 1017.11 1017.20 1017.10 1016.82 1016.42 1015.96 1015.49 1015.10 1014.83
1012.76 1013.07 1013.27 1013.45 1013.71 1014.12 1014.73 1015.53 1016.43 1017.32 1018.07 1018.57 1018.74 1018.56 1018.07 1017.36 1016.56 1015.81 1015.21 1014.83 1014.67 1014.70 1014.86 1015.07 1015.25 1015.36 1015.39 1015.38 1015.37 1015.42 1015.57 1015.83 1016.18 1016.57 1016.92 1017.17 1017.27 1017.17 1016.90 1016.50 1016.03 1015.57 1015.18 1014.90
1012.57 1012.71 1012.82 1012.99 1013.32 1013.88 1014.69 1015.70 1016.82 1017.88 1018.73 1019.26 1019.37 1019.06 1018.39 1017.47 1016.46 1015.52 1014.78 1014.29 1014.09 1014.12 1014.32 1014.59 1014.84 1015.02 1015.13 1015.17 1015.20 1015.28 1015.44 1015.71 1016.06 1016.45 1016.80 1017.06 1017.17 1017.10 1016.85 1016.48 1016.04 1015.60 1015.22 1014.94
1012.49 1012.48 1012.50 1012.66 1013.06 1013.76 1014.76 1015.98 1017.28 1018.49 1019.43 1019.97 1020.02 1019.59 1018.74 1017.63 1016.42 1015.31 1014.42 1013.84 1013.58 1013.61 1013.84 1014.17 1014.49 1014.75 1014.91 1015.00 1015.06 1015.14 1015.29 1015.53 1015.85 1016.20 1016.54 1016.80 1016.91 1016.87 1016.67 1016.35 1015.96 1015.57 1015.22 1014.96
1012.60 1012.46 1012.41 1012.56 1013.02 1013.83 1014.97 1016.34 1017.78 1019.09 1020.08 1020.61 1020.60 1020.06 1019.07 1017.79 1016.43 1015.17 1014.17 1013.51 1013.22 1013.24 1013.50 1013.88 1014.26 1014.57 1014.78 1014.90 1014.96 1015.02 1015.13 1015.32 1015.58 1015.88 1016.17 1016.41 1016.53 1016.52 1016.38 1016.12 1015.80 1015.47 1015.17 1014.93
1012.92 1012.68 1012.57 1012.71 1013.21 1014.08 1015.30 1016.75 1018.25 1019.59 1020.58 1021.07 1020.99 1020.36 1019.28 1017.89 1016.43 1015.09 1014.02 1013.32 1013.01 1013.05 1013.33 1013.74 1014.17 1014.52 1014.76 1014.89 1014.94 1014.96 1015.01 1015.12 1015.29 1015.52 1015.75 1015.95 1016.07 1016.09 1015.99 1015.81 1015.57 1015.30 1015.06 1014.85
1013.35 1013.05 1012.92 1013.05 1013.55 1014.43 1015.65 1017.09 1018.56 1019.86 1020.79 1021.22 1021.08 1020.39 1019.26 1017.84 1016.36 1015.00 1013.94 1013.24 1012.95 1013.01 1013.32 1013.76 1014.22 1014.59 1014.85 1014.97 1014.99 1014.96 1014.93 1014.95 1015.03 1015.16 1015.32 1015.47 1015.57 1015.60 1015.55 1015.43 1015.25 1015.05 1014.86 1014.68
1013.77 1013.47 1013.34 1013.47 1013.94 1014.78 1015.93 1017.27 1018.63 1019.81 1020.63 1020.97 1020.77 1020.06 1018.94 1017.56 1016.14 1014.85 1013.85 1013.22 1012.98 1013.08 1013.42 1013.89 1014.36 1014.74 1014.99 1015.10 1015.08 1015.00 1014.89 1014.82 1014.80 1014.84 1014.91 1015.00 1015.07 1015.10 1015.07 1014.99 1014.86 1014.71 1014.56 1014.41
1014.03 1013.80 1013.71 1013.84 1014.28 1015.02 1016.04 1017.21 1018.38 1019.38 1020.05 1020.29 1020.04 1019.34 1018.29 1017.03 1015.74 1014.60 1013.74 1013.22 1013.06 1013.21 1013.58 1014.06 1014.53 1014.91 1015.14 1015.22 1015.17 1015.04 1014.87 1014.72 1014.61 1014.56 1014.55 1014.58 1014.60 1014.60 1014.57 1014.51 1014.41 1014.29 1014.16 1014.02
1014.08 1013.97 1013.95 1014.10 1014.49 1015.12 1015.96 1016.91 1017.84 1018.62 1019.12 1019.24 1018.96 1018.31 1017.38 1016.29 1015.20 1014.26 1013.57 1013.19 1013.13 1013.34 1013.74 1014.21 1014.66 1015.02 1015.23 1015.28 1015.20 1015.03 1014.82 1014.61 1014.43 1014.31 1014.23 1014.19 1014.16 1014.12 1014.07 1014.00 1013.90 1013.79 1013.67 1013.53
1013.95 1013.98 1014.06 1014.25 1014.59 1015.09 1015.73 1016.43 1017.10 1017.64 1017.95 1017.97 1017.68 1017.10 1016.31 1015.43 1014.57 1013.86 1013.37 1013.14 1013.18 1013.43 1013.83 1014.28 1014.70 1015.01 1015.18 1015.21 1015.12 1014.93 1014.69 1014.45 1014.24 1014.06 1013.93 1013.83 1013.75 1013.67 1013.58 1013.49 1013.37 1013.25 1013.12 1012.97
1013.74 1013.93 1014.12 1014.34 1014.62 1014.99 1015.42 1015.87 1016.28 1016.59 1016.72 1016.64 1016.34 1015.85 1015.23 1014.56 1013.94 1013.46 1013.16 1013.07 1013.19 1013.46 1013.84 1014.24 1014.59 1014.85 1014.98 1014.98 1014.87 1014.69 1014.45 1014.21 1013.99 1013.79 1013.63 1013.49 1013.36 1013.24 1013.12 1012.99 1012.85 1012.70 1012.55 1012.38
1013.60 1013.93 1014.20 1014.44 1014.67 1014.90 1015.13 1015.34 1015.50 1015.58 1015.55 1015.39 1015.10 1014.70 1014.24 1013.78 1013.38 1013.10 1012.96 1012.98 1013.14 1013.41 1013.73 1014.06 1014.33 1014.52 1014.60 1014.58 1014.47 1014.30 1014.09 1013.87 1013.67 1013.48 1013.31 1013.15 1013.00 1012.85 1012.69 1012.53 1012.35 1012.18 1011.99 1011.81
1013.66 1014.08 1014.40 1014.63 1014.78 1014.86 1014.90 1014.89 1014.83 1014.72 1014.55 1014.32 1014.03 1013.72 1013.41 1013.12 1012.91 1012.79 1012.77 1012.86 1013.03 1013.27 1013.52 1013.75 1013.92 1014.03 1014.06 1014.02 1013.92 1013.77 1013.61 1013.44 1013.28 1013.12 1012.97 1012.82 1012.66 1012.49 1012.31 1012.11 1011.91 1011.69 1011.48 1011.26
1013.98 1014.42 1014.73 1014.90 1014.94 1014.87 1014.73 1014.52 1014.27 1013.99 1013.71 1013.42 1013.16 1012.91 1012.72 1012.57 1012.50 1012.50 1012.56 1012.69 1012.85 1013.02 1013.18 1013.31 1013.40 1013.43 1013.42 1013.36 1013.27 1013.17 1013.06 1012.95 1012.85 1012.74 1012.62 1012.49 1012.33 1012.16 1011.96 1011.74 1011.50 1011.26 1011.01 1010.76
1014.51 1014.89 1015.12 1015.18 1015.08 1014.86 1014.54 1014.15 1013.74 1013.34 1012.97 1012.64 1012.39 1012.20 1012.10 1012.06 1012.09 1012.16 1012.28 1012.41 1012.54 1012.65 1012.74 1012.79 1012.80 1012.77 1012.73 1012.67 1012.60 1012.54 1012.49 1012.44 1012.40 1012.34 1012.26 1012.16 1012.02 1011.84 1011.63 1011.39 1011.13 1010.85 1010.57 1010.29
1015.09 1015.34 1015.43 1015.34 1015.08 1014.70 1014.22 1013.68 1013.14 1012.64 1012.21 1011.86 1011.62 1011.48 1011.44 1011.47 1011.57 1011.70 1011.84 1011.98 1012.09 1012.16 1012.20 1012.19 1012.16 1012.11 1012.06 1012.01 1011.98 1011.96 1011.97 1011.97 1011.98 1011.96 1011.92 1011.83 1011.70 1011.52 1011.30 1011.04 1010.75 1010.44 1010.13 1009.80
1015.53 1015.61 1015.52 1015.25 1014.83 1014.29 1013.66 1013.01 1012.38 1011.81 1011.33 1010.98 1010.75 1010.64 1010.64 1010.73 1010.88 1011.05 1011.22 1011.36 1011.48 1011.54 1011.57 1011.56 1011.53 1011.49 1011.46 1011.44 1011.45 1011.48 1011.52 1011.57 1011.61 1011.61 1011.58 1011.50 1011.36 1011.17 1010.93 1010.64 1010.33 1009.99 1009.64 1009.28
1015.65 1015.55 1015.28 1014.84 1014.26 1013.58 1012.85 1012.11 1011.41 1010.80 1010.31 1009.95 1009.73 1009.65 1009.68 1009.81 1009.98 1010.19 1010.39 1010.57 1010.71 1010.82 1010.88 1010.91 1010.92 1010.93 1010.95 1010.99 1011.04 1011.11 1011.19 1011.25 1011.30 1011.30 1011.26 1011.16 1011.00 1010.78 1010.51 1010.19 1009.84 1009.46 1009.08 1008.69
1015.40 1015.12 1014.69 1014.10 1013.40 1012.62 1011.81 1011.02 1010.30 1009.67 1009.18 1008.82 1008.61 1008.54 1008.59 1008.73 1008.93 1009.17 1009.41 1009.64 1009.84 1010.01 1010.15 1010.26 1010.36 1010.45 1010.54 1010.64 1010.74 1010.84 1010.93 1011.00 1011.03 1011.01 1010.94 1010.80 1010.60 1010.34 1010.02 1009.66 1009.27 1008.86 1008.44 1008.02
1014.80 1014.40 1013.84 1013.16 1012.38 1011.55 1010.71 1009.90 1009.17 1008.55 1008.06 1007.70 1007.49 1007.42 1007.47 1007.61 1007.82 1008.08 1008.37 1008.65 1008.93 1009.19 1009.42 1009.64 1009.84 1010.03 1010.20 1010.37 1010.51 1010.64 1010.73 1010.78 1010.78 1010.73 1010.60 1010.41 1010.16 1009.84 1009.48 1009.07 1008.64 1008.19 1007.74 1007.31
1014.01 1013.54 1012.92 1012.19 1011.39 1010.55 1009.72 1008.93 1008.21 1007.61 1007.12 1006.76 1006.54 1006.44 1006.47 1006.59 1006.80 1007.07 1007.37 1007.71 1008.05 1008.40 1008.73 1009.06 1009.36 1009.64 1009.89 1010.11 1010.30 1010.44 1010.53 1010.55 1010.52 1010.42 1010.24 1010.00 1009.69 1009.32 1008.91 1008.46 1007.99 1007.51 1007.04 1006.59
1013.24 1012.76 1012.14 1011.42 1010.64 1009.84 1009.04 1008.29 1007.61 1007.01 1006.53 1006.16 1005.90 1005.77 1005.74 1005.83 1006.00 1006.25 1006.56 1006.91 1007.30 1007.71 1008.12 1008.52 1008.90 1009.25 1009.56 1009.83 1010.04 1010.18 1010.26 1010.27 1010.20 1010.06 1009.84 1009.56 1009.21 1008.80 1008.34 1007.86 1007.36 1006.85 1006.37 1005.91
1012.70 1012.25 1011.68 1011.02 1010.30 1009.56 1008.82 1008.11 1007.46 1006.89 1006.39 1005.99 1005.70 1005.50 1005.41 1005.43 1005.54 1005.74 1006.02 1006.36 1006.74 1007.17 1007.60 1008.04 1008.45 1008.84 1009.18 1009.46 1009.68 1009.83 1009.90 1009.90 1009.81 1009.65 1009.41 1009.11 1008.73 1008.30 1007.83 1007.32 1006.80 1006.28 1005.78 1005.32
Thickness
5760 5744 5734 5739 5743 5743 5737 5727 5721 5725 5732 5726 5718 5716 5718 5720 5719 5717 5716 5717 5718 5719 5722 5722 5721 5720 5718 5715 5713 5711 5708 5706 5703 5700 5697 5694 5692 5690 5689 5688 5687 5686 5684 5683
5747 5741 5754 5757 5753 5746 5738 5726 5721 5722 5729 5721 5712 5711 5714 5714 5713 5713 5712 5711 5713 5715 5716 5718 5718 5716 5714 5712 5710 5707 5704 5701 5699 5695 5692 5688 5685 5682 5681 5680 5679 5678 5676 5675
5747 5754 5766 5759 5751 5742 5735 5728 5723 5717 5719 5716 5710 5702 5704 5708 5711 5712 5713 5713 5714 5715 5715 5716 5715 5714 5713 5711 5708 5706 5701 5698 5695 5691 5686 5682 5678 5676 5673 5672 5670 5669 5668 5667
5754 5763 5762 5755 5750 5746 5730 5740 5734 5722 5708 5693 5699 5684 5696 5700 5703 5708 5711 5713 5714 5717 5718 5716 5715 5714 5713 5711 5708 5704 5699 5695 5691 5687 5682 5677 5671 5667 5666 5664 5662 5661 5660 5659
5752 5760 5757 5751 5752 5750 5735 5739 5729 5717 5704 5693 5690 5683 5688 5699 5700 5707 5713 5716 5718 5719 5719 5717 5717 5716 5714 5711 5707 5702 5697 5692 5688 5682 5677 5671 5666 5663 5660 5658 5655 5654 5653 5652
5758 5767 5764 5758 5756 5753 5741 5731 5719 5705 5695 5683 5685 5678 5684 5694 5704 5711 5717 5720 5721 5722 5721 5719 5718 5716 5712 5709 5705 5699 5693 5688 5683 5678 5672 5667 5662 5658 5654 5652 5649 5648 5646 5645
5748 5757 5764 5763 5745 5743 5735 5712 5690 5685 5674 5677 5686 5681 5688 5710 5716 5717 5720 5722 5723 5723 5721 5718 5716 5713 5709 5706 5701 5695 5689 5683 5678 5673 5668 5663 5658 5654 5650 5647 5644 5642 5639 5637
5732 5731 5755 5760 5750 5735 5729 5718 5691 5681 5675 5677 5684 5681 5700 5723 5726 5726 5726 5725 5725 5723 5721 5719 5716 5712 5707 5703 5697 5690 5684 5679 5674 5669 5664 5660 5655 5651 5647 5644 5640 5637 5634 5632
5731 5733 5760 5766 5764 5749 5728 5716 5712 5688 5681 5676 5681 5691 5710 5727 5726 5726 5726 5725 5723 5723 5721 5717 5713 5708 5704 5698 5692 5686 5680 5674 5670 5665 5661 5656 5653 5648 5644 5641 5637 5633 5630 5627
5744 5735 5750 5761 5762 5752 5741 5719 5699 5686 5674 5673 5683 5687 5693 5715 5721 5724 5723 5723 5723 5721 5717 5714 5709 5704 5699 5693 5687 5681 5676 5671 5667 5662 5658 5654 5650 5646 5641 5637 5633 5629 5625 5622
5747 5731 5737 5746 5745 5740 5733 5717 5697 5682 5683 5671 5669 5684 5716 5720 5724 5723 5724 5724 5720 5716 5713 5709 5704 5699 5693 5687 5682 5677 5672 5667 5663 5659 5655 5650 5646 5642 5637 5633 5629 5625 5620 5616
5739 5723 5717 5731 5747 5751 5746 5730 5707 5695 5684 5675 5672 5686 5731 5728 5727 5726 5725 5723 5719 5714 5709 5703 5698 5692 5687 5682 5677 5673 5669 5665 5661 5657 5652 5647 5643 5638 5633 5628 5624 5619 5614 5610
5737 5720 5705 5709 5720 5737 5736 5729 5714 5697 5681 5671 5672 5694 5730 5729 5728 5725 5722 5719 5714 5709 5703 5697 5691 5686 5682 5678 5674 5670 5667 5662 5659 5653 5648 5643 5638 5633 5628 5623 5619 5614 5609 5604
5743 5719 5709 5704 5708 5724 5726 5728 5713 5704 5686 5679 5685 5701 5720 5724 5722 5721 5719 5715 5708 5703 5698 5692 5687 5683 5679 5675 5671 5668 5664 5660 5655 5650 5644 5638 5634 5628 5623 5618 5613 5608 5603 5598
5742 5724 5723 5722 5727 5726 5726 5728 5721 5712 5706 5696 5704 5704 5718 5721 5720 5719 5716 5710 5705 5700 5696 5691 5686 5681 5677 5673 5669 5665 5661 5657 5651 5645 5640 5635 5630 5624 5619 5613 5608 5603 5597 5593
5735 5726 5725 5723 5730 5725 5724 5730 5729 5722 5717 5711 5712 5712 5727 5725 5720 5716 5712 5707 5701 5698 5695 5691 5686 5681 5676 5672 5667 5663 5658 5653 5647 5641 5636 5631 5625 5619 5614 5609 5603 5597 5592 5587
5724 5720 5711 5706 5716 5722 5713 5729 5730 5728 5726 5719 5711 5720 5727 5721 5716 5714 5711 5705 5700 5698 5694 5690 5686 5681 5676 5670 5665 5659 5655 5649 5643 5637 5632 5627 5621 5615 5610 5604 5598 5592 5586 5581
5720 5711 5700 5699 5709 5701 5716 5738 5737 5732 5732 5727 5725 5725 5723 5721 5720 5717 5712 5706 5701 5698 5694 5690 5685 5679 5674 5668 5662 5656 5651 5644 5639 5633 5627 5622 5616 5610 5605 5598 5592 5587 5581 5575
5725 5711 5695 5689 5692 5701 5721 5737 5735 5728 5727 5733 5727 5726 5721 5716 5714 5711 5713 5708 5705 5701 5696 5691 5686 5679 5672 5666 5660 5653 5647 5640 5634 5629 5623 5618 5612 5605 5599 5593 5587 5581 5575 5570
5717 5712 5698 5687 5690 5689 5717 5742 5743 5732 5718 5735 5728 5722 5713 5707 5695 5705 5717 5710 5705 5700 5695 5689 5683 5675 5669 5663 5656 5648 5642 5636 5630 5626 5620 5614 5607 5600 5594 5588 5582 5576 5569 5564
5708 5701 5695 5687 5685 5697 5729 5739 5736 5709 5711 5739 5730 5723 5712 5708 5714 5719 5719 5712 5707 5701 5694 5687 5679 5672 5667 5660 5651 5643 5638 5632 5628 5622 5615 5609 5602 5595 5589 5583 5577 5571 5565 5559
5704 5696 5690 5680 5682 5695 5736 5730 5722 5724 5740 5740 5734 5728 5720 5721 5721 5716 5713 5709 5703 5698 5692 5684 5675 5669 5664 5656 5647 5640 5635 5631 5624 5617 5610 5604 5597 5590 5586 5578 5573 5567 5560 5555
5702 5704 5698 5695 5703 5726 5732 5732 5738 5738 5735 5738 5735 5734 5727 5721 5717 5714 5709 5705 5700 5695 5689 5682 5673 5666 5659 5651 5643 5637 5633 5627 5619 5612 5605 5598 5591 5585 5579 5572 5567 5562 5557 5551
5710 5709 5701 5698 5712 5725 5730 5732 5736 5737 5736 5740 5739 5736 5729 5722 5721 5715 5709 5704 5698 5692 5685 5678 5669 5661 5655 5649 5641 5635 5630 5622 5614 5606 5600 5592 5585 5580 5574 5568 5563 5558 5554 5549
5708 5705 5696 5696 5709 5717 5729 5730 5732 5735 5736 5736 5736 5734 5729 5725 5720 5716 5711 5705 5698 5691 5683 5674 5665 5658 5653 5646 5639 5632 5625 5617 5608 5601 5594 5587 5580 5574 5569 5564 5559 5555 5552 5546
5696 5694 5690 5694 5709 5705 5709 5717 5723 5725 5727 5729 5727 5726 5725 5721 5719 5715 5710 5705 5697 5688 5679 5669 5661 5654 5648 5641 5634 5628 5621 5612 5603 5596 5589 5581 5574 5569 5564 5560 5558 5555 5549 5545